File timestamp: Tue Aug 23 03:00:00 2016, Internal temp: 16.0980224609375
1471921201, 0.00053727999329567, -0.019334826618433, 0.0183105394244194, 33636, 32504, 23198, -10.6055316925049
1471921202, 0.00211961567401886, -0.0189546104520559, 0.0185640305280685, 33629, 32493, 23216, NaN
1471921203, 0.00303278351202607, -0.0182648897171021, 0.0185553561896086, 33625, 32514, 23205, NaN
1471921204, 0.00356347369961441, -0.0184545684605837, 0.0189750585705042, 33628, 32502, 23214, NaN
1471921205, 0.00416606292128563, -0.0187560878694057, 0.0188025776296854, 33628, 32512, 23202, NaN
1471921206, 0.00456578005105257, -0.0186356510967016, 0.018909964710474, 33624, 32507, 23208, NaN
1471921207, 0.00548497214913368, -0.0187142845243216, 0.0188909415155649, 33632, 32505, 23196, NaN
1471921208, 0.00575737142935395, -0.0187207125127316, 0.0188992153853178, 33637, 32505, 23201, NaN
1471921209, 0.00554439937695861, -0.0180733874440193, 0.0194457303732634, 33631, 32503, 23206, NaN
1471921210, 0.00492973253130913, -0.0188793484121561, 0.0194312427192926, 33627, 32509, 23201, NaN
1471921211, 0.00419752951711416, -0.0187335573136806, 0.0196753069758415, 33649, 32515, 23196, NaN
1471921212, 0.00426986813545227, -0.0195397138595581, 0.0204630568623543, 33629, 32510, 23197, NaN
1471921213, 0.00505389040336013, -0.0194265861064196, 0.0204192660748959, 33642, 32506, 23198, NaN
1471921214, 0.00544173968955874, -0.0191298667341471, 0.020465511828661, 33627, 32499, 23206, NaN
1471921214.004, 0.00470757577568293, -0.0187451764941216, 0.0210864190012217, 33626, 32521, 23205, NaN
1471921215.008, 0.00342385866679251, -0.0185885224491358, 0.0217617508023977, 33630, 32506, 23201, NaN
1471921216.008, 0.00280632032081485, -0.018738180398941, 0.0220230352133512, 33633, 32512, 23212, NaN
1471921217.008, 0.0066773253493011, -0.0183409992605448, 0.0212343689054251, 33630, 32507, 23211, NaN
1471921218.008, 0.0189551841467619, -0.0179339591413736, 0.0204899962991476, 33628, 32515, 23208, NaN
1471921218.008, 0.0415325276553631, -0.0181436073035002, 0.0200721062719822, 33632, 32519, 23194, NaN
1471921219.016, 0.0597514398396015, -0.0179963354021311, 0.0204679388552904, 33635, 32503, 23213, NaN
1471921220.016, 0.0425648428499699, -0.0181093402206898, 0.0211208388209343, 33632, 32495, 23211, NaN
1471921221.016, 0.0277325063943863, -0.0176840629428625, 0.0211822930723429, 33632, 32504, 23205, NaN
1471921222.016, 0.0150833958759904, -0.0171444080770016, 0.0208541303873062, 33632, 32503, 23206, NaN
1471921222.016, 0.00444764411076903, -0.0172697175294161, 0.0206729862838984, 33640, 32510, 23198, NaN
1471921223.024, -0.00434264214709401, -0.018082408234477, 0.02060816437006, 33625, 32503, 23206, NaN
1471921224.024, -0.0114525174722075, -0.0177734065800905, 0.0209210272878408, 33634, 32500, 23208, NaN
1471921225.024, -0.0170433074235916, -0.0170379616320133, 0.0211638528853655, 33630, 32522, 23199, NaN
1471921226.014, -0.0212717428803444, -0.0165168140083551, 0.021009735763073, 33640, 32503, 23213, NaN
1471921227.014, -0.024289121851325, -0.0162275470793247, 0.0208098031580448, 33623, 32495, 23196, NaN
1471921228.014, -0.0262405630201101, -0.0169679298996925, 0.0209440924227238, 33628, 32501, 23211, NaN
1471921229.014, -0.0272643081843853, -0.0171250887215137, 0.0205674283206463, 33616, 32511, 23203, NaN
1471921230.014, -0.0274911504238844, -0.0167639888823032, 0.0206128600984812, 33627, 32526, 23196, NaN
1471921231.014, -0.0270439479500055, -0.0161263849586248, 0.0202506612986326, 33645, 32518, 23204, NaN
1471921232.014, -0.0260372497141361, -0.0167510788887739, 0.020159350708127, 33639, 32504, 23204, NaN
1471921233.014, -0.0245770197361708, -0.0166455376893282, 0.0202991105616093, 33625, 32504, 23208, NaN
1471921234.014, -0.0227604825049639, -0.016189843416214, 0.0198553204536438, 33634, 32511, 23195, NaN
1471921235.014, -0.02067606523633, -0.0159534458070993, 0.0199311431497335, 33623, 32514, 23214, NaN
1471921236.014, -0.018403422087431, -0.0166012812405825, 0.0199519563466311, 33633, 32492, 23198, NaN
1471921237.014, -0.0160135701298714, -0.0173682291060686, 0.0202136021107435, 33632, 32503, 23208, NaN
1471921238.014, -0.013569095171988, -0.0179436504840851, 0.0206757020205259, 33632, 32496, 23200, NaN
1471921239.014, -0.011124424636364, -0.0188056249171495, 0.0203582029789686, 33628, 32512, 23216, NaN
1471921240.014, -0.00872617494314909, -0.0187427625060081, 0.0196695365011692, 33634, 32497, 23202, NaN
1471921241.014, -0.00641354825347662, -0.0198930166661739, 0.0194766242057085, 33619, 32505, 23214, NaN
1471921241.014, -0.00421876600012183, -0.0201539807021618, 0.019432133063674, 33625, 32509, 23209, NaN
1471921242.016, -0.00216754758730531, -0.0202593505382538, 0.0189541019499302, 33621, 32512, 23209, NaN
1471921243.016, -0.00027960812440142, -0.0208046101033688, 0.0192745383828878, 33640, 32511, 23196, NaN
1471921244.016, 0.00143082544673234, -0.0209766626358032, 0.0185440145432949, 33625, 32499, 23197, NaN
1471921245.016, 0.00295448978431523, -0.0215649828314781, 0.0183571930974722, 33643, 32507, 23197, NaN
1471921245.016, 0.00428655929863453, -0.0218905787914991, 0.0182209555059671, 33624, 32505, 23207, NaN
1471921246.018, 0.00542612560093403, -0.0219437703490257, 0.0189387649297714, 33630, 32496, 23207, NaN
1471921247.018, 0.00637568812817335, -0.0227507725358009, 0.0191884599626064, 33630, 32517, 23207, NaN
1471921248.018, 0.0071406620554626, -0.0233033169060946, 0.0187301803380251, 33634, 32510, 23206, NaN
1471921249.018, 0.00772890588268638, -0.0236199591308832, 0.0197249408811331, 33634, 32509, 23211, NaN
1471921249.018, 0.00815027765929699, -0.0238182190805674, 0.0198194105178118, 33626, 32508, 23199, NaN
1471921250.022, 0.00679628737270832, -0.023548848927021, 0.0199772231280804, 33634, 32520, 23210, NaN
1471921251.022, 0.00241771596483886, -0.0233690738677979, 0.0196499079465866, 33626, 32509, 23209, NaN
1471921252.022, -0.00347962370142341, -0.0234843902289867, 0.0191448386758566, 33621, 32507, 23205, NaN
1471921253.022, -0.0108977686613798, -0.0234701931476593, 0.0190915148705244, 33634, 32510, 23208, NaN
1471921254.022, -0.0181109607219696, -0.0229563564062119, 0.0186462849378586, 33620, 32506, 23215, NaN
1471921255.022, -0.0247073527425528, -0.0232110247015953, 0.0183288790285587, 33627, 32515, 23208, -12.183479309082
1471921256.022, -0.0301590766757727, -0.0233738161623478, 0.0186478402465582, 33630, 32529, 23203, NaN
1471921257.022, -0.0341891869902611, -0.0228532683104277, 0.0187546275556087, 33629, 32502, 23209, NaN
1471921258.022, -0.0365637242794037, -0.0221818257123232, 0.0179209765046835, 33641, 32520, 23209, NaN
1471921259.022, -0.036884319037199, -0.0226548034697771, 0.0180799849331379, 33639, 32512, 23204, NaN
1471921260.022, -0.0349090658128262, -0.0228103064000607, 0.018322242423892, 33631, 32513, 23220, NaN
1471921261.022, -0.0327685475349426, -0.02341253682971, 0.0173268746584654, 33638, 32515, 23213, NaN
1471921262.022, -0.029295826330781, -0.0239136349409819, 0.0177726577967405, 33629, 32506, 23205, NaN
1471921263.022, -0.024501770734787, -0.0236153453588486, 0.0165123827755451, 33627, 32517, 23217, NaN
1471921264.022, -0.0185601375997066, -0.024244163185358, 0.0157516971230507, 33635, 32512, 23209, NaN
1471921265.022, -0.0117934606969357, -0.0241029560565948, 0.0157035943120718, 33632, 32505, 23199, NaN
1471921266.022, -0.00448806351050735, -0.0240167453885078, 0.0159155577421188, 33632, 32502, 23209, NaN
1471921267.022, 0.00306832767091691, -0.024375956505537, 0.0158353913575411, 33628, 32513, 23218, NaN
1471921267.022, 0.0109736332669854, -0.0243642888963223, 0.0156528167426586, 33630, 32518, 23212, NaN
1471921268.028, 0.0186719335615635, -0.0243897885084152, 0.0156219964846969, 33636, 32516, 23207, NaN
1471921269.028, 0.025963369756937, -0.0239858645945787, 0.015970828011632, 33623, 32509, 23205, NaN
1471921270.028, 0.0330986753106117, -0.0243946202099323, 0.016184113919735, 33615, 32509, 23204, NaN
1471921271.028, 0.0397564917802811, -0.0240586549043655, 0.0160783976316452, 33642, 32505, 23198, NaN
1471921271.028, 0.0447475463151932, -0.0242399033159018, 0.0168671105057001, 33651, 32504, 23202, NaN
1471921272.036, 0.0490081571042538, -0.0242684278637171, 0.0159325115382671, 33624, 32497, 23205, NaN
1471921273.036, 0.0525653511285782, -0.0244833566248417, 0.0156439431011677, 33631, 32502, 23196, NaN
1471921274.036, 0.055379431694746, -0.024247145280242, 0.0155395595356822, 33637, 32508, 23195, NaN
1471921275.036, 0.0564483292400837, -0.0237559750676155, 0.0157578699290752, 33631, 32499, 23204, NaN
1471921275.036, 0.0566818192601204, -0.0238972492516041, 0.0159160681068897, 33622, 32515, 23215, NaN
1471921276.044, 0.0548453591763973, -0.0243640039116144, 0.0166731122881174, 33629, 32512, 23209, NaN
1471921277.044, 0.0525126457214355, -0.0238708946853876, 0.0170199479907751, 33627, 32512, 23204, NaN
1471921278.044, 0.0500547327101231, -0.0235614087432623, 0.0179266091436148, 33644, 32510, 23188, NaN
1471921279.044, 0.0467920489609241, -0.0237224102020264, 0.0182245727628469, 33624, 32511, 23207, NaN
1471921279.044, 0.0429953001439571, -0.0233023315668106, 0.0174976456910372, 33634, 32506, 23205, NaN
1471921280.052, 0.0387615822255611, -0.0229566711932421, 0.0177412033081055, 33632, 32497, 23198, NaN
1471921281.052, 0.0341279432177544, -0.0217596739530563, 0.0184958726167679, 33622, 32514, 23219, NaN
1471921282.042, 0.029283506795764, -0.0220911409705877, 0.0183989219367504, 33628, 32508, 23204, NaN
1471921283.042, 0.0250392965972424, -0.0226135011762381, 0.0182718876749277, 33638, 32508, 23203, NaN
1471921284.042, 0.0213788580149412, -0.0230336580425501, 0.0190005693584681, 33636, 32519, 23194, NaN
1471921285.042, 0.0170768648386002, -0.0223958604037762, 0.0193722583353519, 33635, 32511, 23200, NaN
1471921286.044, 0.0122910514473915, -0.0218577235937119, 0.0199995767325163, 33647, 32510, 23198, NaN
1471921287.04, 0.00707586109638214, -0.0217981096357107, 0.0205387733876705, 33637, 32503, 23200, NaN
1471921288.04, 0.00183409894816577, -0.0213349498808384, 0.0202023964375257, 33630, 32519, 23202, NaN
1471921289.04, -0.00281602004542947, -0.0217946022748947, 0.0207654442638159, 33635, 32519, 23203, NaN
1471921290.04, -0.00849517341703176, -0.0220595374703407, 0.0209727678447962, 33634, 32514, 23192, NaN
1471921291.04, -0.0139858480542898, -0.0220320355147123, 0.0206039566546679, 33628, 32511, 23215, NaN
1471921292.04, -0.019164189696312, -0.0218282360583544, 0.0213580578565598, 33646, 32513, 23208, NaN
1471921293.04, -0.0232251286506653, -0.0215500257909298, 0.0218744706362486, 33628, 32507, 23210, NaN
1471921294.04, -0.0260581877082586, -0.0222949553281069, 0.02188640832901, 33638, 32500, 23196, NaN
1471921295.04, -0.0281862765550613, -0.021910298615694, 0.0212239772081375, 33632, 32499, 23205, NaN
1471921296.04, -0.0302394758909941, -0.0218188501894474, 0.0211854036897421, 33630, 32516, 23211, NaN
1471921297.04, -0.0312723740935326, -0.0222450215369463, 0.0203631911426783, 33620, 32515, 23214, NaN
1471921298.04, -0.0318124294281006, -0.0224254112690687, 0.0201079826802015, 33634, 32499, 23201, NaN
1471921298.04, -0.0322966054081917, -0.0225518140941858, 0.0201357286423445, 33630, 32507, 23205, NaN
1471921299.042, -0.0319895967841148, -0.0226313974708319, 0.0199892148375511, 33625, 32511, 23210, NaN
1471921300.042, -0.03298020362854, -0.0229087192565203, 0.0197584740817547, 33633, 32511, 23209, NaN
1471921301.042, -0.0335138328373432, -0.0228890124708414, 0.019733352586627, 33618, 32500, 23205, NaN
1471921302.042, -0.0332491397857666, -0.0223456230014563, 0.0195613130927086, 33630, 32514, 23197, NaN
1471921302.042, -0.0321732088923454, -0.0222282633185387, 0.0196988992393017, 33645, 32512, 23191, NaN
1471921303.044, -0.0297806318849325, -0.021936172619462, 0.0200166087597609, 33632, 32520, 23201, NaN
1471921304.044, -0.0271532014012337, -0.0226449724286795, 0.0203694384545088, 33639, 32503, 23202, NaN
1471921305.044, -0.0245120171457529, -0.0231836531311274, 0.0202010050415993, 33632, 32514, 23208, NaN
1471921306.044, -0.0217101387679577, -0.0228941012173891, 0.0200576391071081, 33633, 32508, 23209, NaN
1471921306.044, -0.0186453368514776, -0.0227432996034622, 0.0202003195881844, 33630, 32496, 23201, NaN
1471921307.048, -0.0146770542487502, -0.0230328198522329, 0.020096791908145, 33629, 32507, 23201, NaN
1471921308.048, -0.00992230325937271, -0.022315202280879, 0.0199626442044973, 33639, 32513, 23199, -12.0282640457153
1471921309.048, -0.00323423254303634, -0.0224145017564297, 0.0193092729896307, 33645, 32503, 23218, NaN
1471921310.048, 0.00670430576428771, -0.0224046595394611, 0.0191355645656586, 33632, 32522, 23202, NaN
1471921311.048, 0.0202468018978834, -0.0225863251835108, 0.0191208533942699, 33637, 32512, 23207, NaN
1471921312.048, 0.0361430980265141, -0.0225444659590721, 0.0186713095754385, 33625, 32507, 23208, NaN
1471921313.048, 0.0529341883957386, -0.0228996053338051, 0.0189807340502739, 33641, 32502, 23205, NaN
1471921314.048, 0.069582112133503, -0.0229448173195124, 0.0185627099126577, 33640, 32512, 23199, NaN
1471921315.048, 0.0853874608874321, -0.0229369271546602, 0.0177472550421953, 33635, 32507, 23195, NaN
1471921316.048, 0.0999432429671288, -0.0230402909219265, 0.0171760469675064, 33613, 32508, 23217, NaN
1471921317.048, 0.112860575318336, -0.0223425850272179, 0.0166418980807066, 33627, 32506, 23208, NaN
1471921318.048, 0.114554159343243, -0.0226788595318794, 0.0166019592434168, 33625, 32498, 23203, NaN
1471921319.048, 0.0721038430929184, -0.0225842166692019, 0.0169708393514156, 33627, 32516, 23209, NaN
1471921320.048, 0.0361666306853294, -0.0231224745512009, 0.0182162281125784, 33630, 32503, 23222, NaN
1471921321.048, 0.0062026483938098, -0.0239606443792582, 0.017744405195117, 33629, 32510, 23203, NaN
1471921322.048, -0.0183169357478619, -0.0231114067137241, 0.0177596770226955, 33628, 32505, 23217, NaN
1471921323.048, -0.0379075929522514, -0.0231268517673016, 0.0176984872668982, 33635, 32505, 23195, NaN
1471921324.048, -0.0530691146850586, -0.0238013882189989, 0.0178502425551414, 33635, 32508, 23204, NaN
1471921324.048, -0.0642833337187767, -0.0238543320447206, 0.0182586517184973, 33633, 32520, 23201, NaN
1471921325.054, -0.0720120221376419, -0.0240728296339512, 0.017850898206234, 33624, 32520, 23209, NaN
1471921326.054, -0.0766949653625488, -0.0245373900979757, 0.0178151298314333, 33631, 32502, 23199, NaN
1471921327.054, -0.0787482857704163, -0.0244786441326141, 0.0178014878183603, 33626, 32510, 23208, NaN
1471921328.054, -0.0785630941390991, -0.0245405565947294, 0.0173380449414253, 33629, 32501, 23202, NaN
1471921328.054, -0.0765043646097183, -0.0250259339809418, 0.0169425159692764, 33645, 32510, 23204, NaN
1471921329.062, -0.0729101970791817, -0.0250769127160311, 0.0166922211647034, 33622, 32508, 23208, NaN
1471921330.062, -0.0680913031101227, -0.0250653810799122, 0.016987144947052, 33624, 32510, 23203, NaN
1471921331.062, -0.0623308792710304, -0.0261603761464357, 0.0163919199258089, 33624, 32514, 23205, NaN
1471921332.062, -0.0558846965432167, -0.0266091767698526, 0.0164358895272017, 33637, 32504, 23205, NaN
1471921332.062, -0.0489814877510071, -0.0265309121459723, 0.0167336966842413, 33635, 32509, 23203, NaN
1471921333.07, -0.0418235920369625, -0.0261159874498844, 0.0166717171669006, 33640, 32508, 23211, NaN
1471921334.07, -0.0345877856016159, -0.0263057537376881, 0.0169421341270208, 33638, 32514, 23204, NaN
1471921335.07, -0.0274263191968203, -0.0259733870625496, 0.01741112023592, 33630, 32513, 23207, NaN
1471921336.07, -0.0204681418836117, -0.0248076394200325, 0.0176455788314342, 33620, 32520, 23208, NaN
1471921337.08, -0.00756903830915689, -0.0241963602602482, 0.0190542656928301, 33648, 32505, 23202, NaN
1471921338.07, -0.00178202940151095, -0.0237898584455252, 0.0188579950481653, 33624, 32510, 23207, NaN
1471921339.07, 0.00349073670804501, -0.0226066932082176, 0.0195090211927891, 33639, 32508, 23214, NaN
1471921340.07, 0.00821498967707157, -0.0228835511952639, 0.0192800965160131, 33625, 32512, 23197, NaN
1471921341.07, 0.0123706264421344, -0.022080997005105, 0.0191797185689211, 33633, 32504, 23201, NaN
1471921342.07, 0.0156980380415916, -0.0210506804287434, 0.0186645667999983, 33624, 32509, 23206, NaN
1471921343.07, 0.0172645412385464, -0.0212585553526878, 0.0186696536839008, 33629, 32508, 23213, NaN
1471921344.07, 0.0174329727888107, -0.0220200810581446, 0.019335949793458, 33636, 32499, 23212, NaN
1471921345.07, 0.0166139677166939, -0.0217270739376545, 0.0196657534688711, 33632, 32506, 23190, NaN
1471921346.07, 0.0152118979021907, -0.0218010619282722, 0.0188499335199594, 33631, 32506, 23203, NaN
1471921347.07, 0.01396762765944, -0.0221636649221182, 0.018374951556325, 33632, 32515, 23209, NaN
1471921348.07, 0.0125002218410373, -0.021394282579422, 0.0186952408403158, 33628, 32509, 23203, NaN
1471921349.07, 0.0108527205884457, -0.0213535688817501, 0.0181684587150812, 33628, 32507, 23200, NaN
1471921350.07, 0.00944497808814049, -0.0209752228111029, 0.0177707560360432, 33637, 32506, 23190, NaN
1471921351.07, 0.00864425860345364, -0.0206141471862793, 0.0183481611311436, 33638, 32512, 23198, NaN
1471921352.07, 0.00866579357534647, -0.0209523309022188, 0.0194285325706005, 33631, 32514, 23209, NaN
1471921353.07, 0.00850546918809414, -0.0208706259727478, 0.0195409245789051, 33638, 32505, 23197, NaN
1471921354.07, 0.00856736209243536, -0.0205895360559225, 0.0201218854635954, 33629, 32510, 23207, NaN
1471921355.07, 0.0090086730197072, -0.0209225546568632, 0.0195611882954836, 33645, 32510, 23203, NaN
1471921355.07, 0.00995463784784079, -0.0209751892834902, 0.0190450083464384, 33626, 32507, 23216, NaN
1471921356.072, 0.0111088380217552, -0.02089131064713, 0.0189851652830839, 33626, 32517, 23206, NaN
1471921357.072, 0.0124662080779672, -0.0206888020038605, 0.0194700453430414, 33635, 32512, 23210, NaN
1471921358.072, 0.0142953116446733, -0.0205486379563808, 0.0198887307196856, 33616, 32513, 23209, NaN
1471921359.072, 0.0157605763524771, -0.019981637597084, 0.020610673353076, 33635, 32513, 23209, NaN
1471921359.072, 0.017181945964694, -0.0207283049821854, 0.0207375232130289, 33624, 32498, 23202, NaN
1471921360.074, 0.0190784242004156, -0.0200431160628796, 0.0199353564530611, 33621, 32512, 23207, NaN
1471921361.074, 0.0197898708283901, -0.0200977399945259, 0.0195600707083941, 33628, 32508, 23215, NaN
1471921362.074, 0.0204882621765137, -0.0199662111699581, 0.0196711458265781, 33638, 32511, 23201, -12.0568256378174
1471921363.074, 0.0214100573211908, -0.0201913509517908, 0.0194151978939772, 33633, 32497, 23206, NaN
1471921363.074, 0.021922254934907, -0.0211303103715181, 0.0186457894742489, 33623, 32507, 23210, NaN
1471921364.078, 0.0222978927195072, -0.0205509755760431, 0.0192218217998743, 33625, 32507, 23192, NaN
1471921365.078, 0.0225887931883335, -0.0208122748881578, 0.0202875845134258, 33636, 32502, 23215, NaN
1471921366.078, 0.0217079576104879, -0.0213850792497396, 0.0203561689704657, 33641, 32500, 23202, NaN
1471921367.078, 0.0207594819366932, -0.02050487883389, 0.0206413511186838, 33633, 32508, 23202, NaN
1471921368.078, 0.0199997015297413, -0.0207033231854439, 0.0206034071743488, 33617, 32509, 23216, NaN
1471921369.078, 0.0192556530237198, -0.0205898862332106, 0.020416060462594, 33629, 32498, 23200, NaN
1471921370.078, 0.0179124418646097, -0.0205097384750843, 0.0204926729202271, 33628, 32516, 23211, NaN
1471921371.078, 0.0162481740117073, -0.0207345094531775, 0.0205218661576509, 33627, 32512, 23211, NaN
1471921372.078, 0.0142017491161823, -0.0211493019014597, 0.0208556726574898, 33628, 32500, 23209, NaN
1471921373.078, 0.0120197832584381, -0.0222956389188766, 0.0205187574028969, 33648, 32512, 23201, NaN
1471921374.078, 0.0101246889680624, -0.0228662993758917, 0.020307183265686, 33637, 32504, 23206, NaN
1471921375.058, 0.00782513618469238, -0.0228872075676918, 0.020531727001071, 33646, 32513, 23195, NaN
1471921376.058, 0.00562979280948639, -0.0225500129163265, 0.0206754822283983, 33637, 32521, 23201, NaN
1471921377.058, 0.0035553383640945, -0.0223299171775579, 0.0206286180764437, 33632, 32508, 23211, NaN
1471921378.058, 0.00161934015341103, -0.0220526270568371, 0.0215018820017576, 33637, 32510, 23195, NaN
1471921379.058, -0.000206043434445746, -0.0222120601683855, 0.0212489739060402, 33640, 32518, 23202, NaN
1471921380.058, -0.0019363583996892, -0.022051353007555, 0.0218868292868137, 33629, 32506, 23207, NaN
1471921381.058, -0.00365021382458508, -0.0219156164675951, 0.0229623019695282, 33629, 32513, 23205, NaN
1471921381.058, -0.00522833410650492, -0.0214899368584156, 0.0226847864687443, 33624, 32504, 23217, NaN
1471921382.064, -0.00665473751723766, -0.0211235862225294, 0.0231198780238628, 33628, 32504, 23200, NaN
1471921383.064, -0.00749081047251821, -0.0213363748043776, 0.0231283586472273, 33615, 32515, 23210, NaN
1471921384.064, -0.00772094447165728, -0.0211910400539637, 0.022539459168911, 33639, 32509, 23208, NaN
1471921385.064, -0.00906423013657331, -0.0207743793725967, 0.022434413433075, 33643, 32515, 23201, NaN
1471921385.064, -0.0103840883821249, -0.0202287677675486, 0.0226496402174234, 33617, 32506, 23211, NaN
1471921386.072, -0.0109074935317039, -0.019779259338975, 0.0224032159894705, 33637, 32512, 23208, NaN
1471921387.072, -0.0110361445695162, -0.0202274862676859, 0.0220598503947258, 33648, 32505, 23198, NaN
1471921388.072, -0.0114503782242537, -0.0201067160815001, 0.021826134994626, 33625, 32515, 23217, NaN
1471921389.072, -0.0118738049641252, -0.0195888746529818, 0.0215629022568464, 33615, 32505, 23226, NaN
1471921389.072, -0.0129466345533729, -0.0193010922521353, 0.0217875987291336, 33635, 32504, 23196, NaN
1471921390.08, -0.0135063724592328, -0.0199481528252363, 0.0213630087673664, 33631, 32511, 23204, NaN
1471921391.08, -0.012930354103446, -0.0192179884761572, 0.0205723531544209, 33632, 32511, 23208, NaN
1471921392.08, -0.0120882513001561, -0.0188738014549017, 0.0202621910721064, 33642, 32510, 23194, NaN
1471921393.08, -0.0118014272302389, -0.0190618932247162, 0.0196286626160145, 33631, 32505, 23193, NaN
1471921394.07, -0.0113431550562382, -0.0191624481230974, 0.019355271011591, 33626, 32509, 23207, NaN
1471921395.07, -0.0108440201729536, -0.018589785322547, 0.0184801202267408, 33622, 32517, 23200, NaN
1471921396.07, -0.00992780830711126, -0.0186423882842064, 0.018445136025548, 33638, 32512, 23213, NaN
1471921397.07, -0.00753836845979095, -0.0187693722546101, 0.0178099852055311, 33633, 32512, 23206, NaN
1471921398.07, -0.00571181811392307, -0.0189735628664494, 0.0164111461490393, 33643, 32492, 23200, NaN
1471921399.07, -0.00417850585654378, -0.0189812388271093, 0.016443932428956, 33629, 32507, 23203, NaN
1471921400.07, -0.00264632212929428, -0.0195588991045952, 0.0161099433898926, 33636, 32505, 23204, NaN
1471921401.07, -0.00171715696342289, -0.0194976441562176, 0.0150411240756512, 33630, 32509, 23212, NaN
1471921402.07, -0.00105281046126038, -0.0191200375556946, 0.0147554846480489, 33628, 32504, 23216, NaN
1471921403.07, -0.000941546459216624, -0.0196389611810446, 0.0143200503662229, 33625, 32507, 23207, NaN
1471921404.07, -0.000617958547081798, -0.0194518510252237, 0.0149266151711345, 33646, 32507, 23210, NaN
1471921405.07, -0.00062257784884423, -0.0202799886465073, 0.0155385639518499, 33616, 32502, 23218, NaN
1471921406.07, -0.000725880381651223, -0.0197380911558867, 0.0160298440605402, 33621, 32518, 23213, NaN
1471921407.07, -0.00151588942389935, -0.0193696711212397, 0.0160633288323879, 33620, 32515, 23212, NaN
1471921408.07, -0.00185487302951515, -0.0199901480227709, 0.0157444439828396, 33632, 32511, 23206, NaN
1471921409.07, -0.00195417599752545, -0.0196839720010757, 0.0156507324427366, 33619, 32504, 23208, NaN
1471921410.07, -0.00272332667373121, -0.0200044475495815, 0.0157434046268463, 33629, 32505, 23200, NaN
1471921411.07, -0.0032536790240556, -0.0197510775178671, 0.015463107265532, 33629, 32513, 23201, NaN